Location: Mont Hereford
(45.0826°N, 71.6017°W)
Time: 15:50:41
(UTC-05:00)

Tiangong 1 - Visible Passes

Search period start: 20 January 2018 00:00
Search period end: 30 January 2018 00:00
Orbit: 262 x 287 km, 42.8° (Epoch: 20 January)

Date Brightness Start Highest point End Pass type
(mag) Time Alt. Az. Time Alt. Az. Time Alt. Az.
20 Jan 1.6 17:58:48 10° W 18:01:08 37° S 18:02:01 26° SE visible
21 Jan 2.1 17:58:20 10° W 18:00:34 29° SSW 18:01:47 18° SSE visible
22 Jan 2.8 17:57:51 10° WSW 17:59:50 21° SSW 18:01:34 11° SSE visible
23 Jan 3.4 17:57:26 10° WSW 17:58:56 15° SSW 18:00:24 10° SSE visible
